Regional Weather Roundup
Issued by NWS Jackson, KY

Home | Current Version | Previous Version | Graphics & Text | Print | Product List | Glossary On
Versions: 1 2 3 4 5 6 7 8 9 10 11 12 13 14 15 16 17 18 19 20 21 22 23 24 25 26 27 28 29 30 31 32 33 34 35 36 37 38 39 40 41 42 43 44 45 46 47 48 49 50
000
ASUS43 KJKL 301510
RWRJKL

EAST KENTUCKY HOURLY WEATHER ROUNDUP
NATIONAL WEATHER SERVICE JACKSON KY
1000 AM EST FRI JAN 30 2015

NOTE: "FAIR" INDICATES FEW OR NO CLOUDS BELOW 12,000 FEET WITH
NO SIGNIFICANT WEATHER AND/OR OBSTRUCTIONS TO VISIBILITY.

* THESE REPORTS ARE NOT UNDER NWS QUALITY CONTROL AND MAY NOT
  REPORT WEATHER SUCH AS PRECIPITATION AND FOG.

KYZ079-080-083-085-087-088-110-112-115-119-120-301600
...EASTERN KENTUCKY...

CITY           SKY/WX    TMP DP  RH WIND       PRES   REMARKS
JACKSON        FLURRIES  32  23  69 NW8G16    30.31R WCI  25
LONDON         PTSUNNY   37  18  46 N12G22    30.36R WCI  29
SOMERSET*      CLOUDY    34  23  64 N6        30.41R WCI  29
MONTICELLO*    FLURRIES  34  27  76 NW13      30.43R WCI  25
MIDDLESBORO*   CLOUDY    34  24  67 NW9G23    30.35R WCI  27
HARLAN APT*    CLOUDY    32  27  80 NW7G17    30.31R WCI  26
HAZARD APT*    CLOUDY    34  25  69 NW9       30.32  WCI  26
BLACK MTN*       N/A     19  19 100 N8          N/A  WCI   9
PIKEVILLE APT* CLOUDY    30  25  80 W10G18    30.27R WCI  21
BIG SANDY*     HVY SNOW  28  27  95 NW9       30.30R VSB<1/4 WCI  20
MOREHEAD APT*  CLOUDY    30  21  69 N16G24    30.38R WCI  19
$$

KYZ035-036-041-042-044-050-067-078-099-301600
...CENTRAL KENTUCKY...

CITY           SKY/WX    TMP DP  RH WIND       PRES   REMARKS
MT STERLING*   CLOUDY    30  23  74 N13G22    30.39R WCI  20
FLEMING/MASON* CLOUDY    27  15  59 N15G24    30.40R WCI  16
DANVILLE*      CLOUDY    32  23  69 NW10G16   30.39R WCI  24
RICHMOND*      CLOUDY    34  23  64 NW13G18   30.37R WCI  25
LEXINGTON      FLURRIES  32  24  72 NW14      30.40R WCI  22
FRANKFORT      CLOUDY    33  22  63 N13G20    30.40R WCI  24
$$

KYZ091>093-OHZ055-061-077-WVZ005-015-034-035-042-301600
...SOUTHERN OHIO/WEST VIRGINIA...

CITY           SKY/WX    TMP DP  RH WIND       PRES   REMARKS
COVINGTON      FLURRIES  27  16  63 N18       30.42R WCI  14
COLUMBUS       FLURRIES  22  13  68 NW20      30.35R WCI   7
DAYTON         MOSUNNY   23  13  65 N20G28    30.41R WCI   8
WILMINGTON     SUNNY     22  11  62 NW17      30.38R WCI   8
HUNTINGTON     CLOUDY    29  17  61 NW18G28   30.32R WCI  16
CHARLESTON     PTSUNNY   30  18  60 NW20G35   30.27R WCI  17
PINEVILLE*     LGT SNOW  31  27  86 MISG      30.25R
BECKLEY        SNOW      24  21  88 NW12G25   30.14R VSB 1/4 WCI  13
BLUEFIELD      LGT SNOW  27  21  78 NW14G32   30.11S VSB 3/4 WCI  16
$$

VAZ002-007-008-TNZ017-027-036-066-071-301600
...SOUTHWEST VIRGINIA/EAST TENNESSEE...

CITY           SKY/WX    TMP DP  RH WIND       PRES   REMARKS
WISE*          FLURRIES  30  21  69 NW14      30.22R WCI  20
JONESVILLE*    LGT RAIN  32  25  74 NW8       30.33R WCI  25
ABINGDON*      CLOUDY    32  24  71 NW12G17   30.22R WCI  23
BRISTOL        PTSUNNY   37  23  56 W9        30.27R WCI  30
KNOXVILLE      CLOUDY    37  24  59 N7        30.37R WCI  32
OAK RIDGE      CLOUDY    37  27  67 N7        30.39R WCI  32
CROSSVILLE     CLOUDY    32  25  75 NW10      30.35R WCI  24
NASHVILLE      PTSUNNY   38  21  50 N10       30.48R WCI  31
$$

...KEY TO REMARKS...
VSB - VISIBILITY IN MILES
WCI - WIND CHILL INDEX
HX  - HEAT INDEX

$$


USA.gov is the U.S. government's official web portal to all federal, state and local government web resources and services.